Flint, MI

10:40 PM EDT on June 21, 2018 (GMT -0400)
Bishop International

Weather History for KFNT - October, 2000

Change the Weather History Date:

Tuesday, October 17, 2000

  Actual Average Record
Temperature  
Mean Temperature 53 °F 49 °F  
Max Temperature 63 °F 59 °F 87 °F (1938)
Min Temperature 44 °F 39 °F 24 °F (2002)
Degree Days  
Heating Degree Days 12 16  
Month to date heating degree days 229  
Since 1 July heating degree days 439  
Cooling Degree Days 0 0  
Month to date cooling degree days 2  
Year to date cooling degree days 528  
Growing Degree Days 3 (Base 50)    
Moisture  
Dew Point 48 °F    
Average Humidity 86    
Maximum Humidity 100    
Minimum Humidity 60    
Precipitation  
Precipitation 0.00 in 0.07 in 0.72 in (1993)
Month to date precipitation 1.43  
Year to date precipitation 25.74  
Snow  
Snow 0.00 in 0.10 in T in (1976)
Month to date snowfall 0.2  
Since 1 July snowfall 0.2  
Since 1 September snowfall 0.2  
Snow Depth -    
Sea Level Pressure  
Sea Level Pressure 30.18 in    
Wind  
Wind Speed 2 mph (NNE)    
Max Wind Speed 7 mph    
Max Gust Speed -    
Visibility 8 miles    
Events Fog    
T = Trace of Precipitation, MM = Missing Value Source: NWS Daily Summary

Daily Weather History Graph

Daily Weather History Graph

Search for Another Location

Airport or City:

Astronomy

Oct. 17, 2000 Rise Set
Actual Time 7:51 AM EDT 6:48 PM EDT
Civil Twilight 7:22 AM EDT 7:17 PM EDT
Nautical Twilight 6:49 AM EDT 7:49 PM EDT
Astronomical Twilight 6:16 AM EDT 8:22 PM EDT
Moon 10:03 PM EDT (10/17) 12:26 PM EDT (10/17)
Length of Visible Light 11h 54m
Length of Day
10h 57m
Waning Gibbous, 79% of the Moon is Illuminated
Oct 17
Waning Gibbous
Oct 20
Last Quarter
Oct 27
New
Nov 4
First Quarter
Nov 11
Full

Hourly Weather History & Observations

Time (EDT) Temp. Windchill Dew Point Humidity Pressure Visibility Wind Dir Wind Speed Gust Speed Precip Events Conditions
12:53 AM 51.1 °F - 50.0 °F 96% 30.20 in 10.0 mi Calm Calm - N/A   Overcast
1:53 AM 51.1 °F - 50.0 °F 96% 30.19 in 10.0 mi Calm Calm - N/A   Overcast
2:14 AM 51.8 °F - 50.0 °F 94% 30.18 in 10.0 mi Calm Calm - N/A   Overcast
2:53 AM 50.0 °F - 50.0 °F 100% 30.18 in 9.0 mi Calm Calm - N/A   Scattered Clouds
3:38 AM 51.8 °F - 50.0 °F 94% 30.17 in 9.0 mi Calm Calm - N/A   Overcast
3:53 AM 50.0 °F - 48.9 °F 96% 30.18 in 9.0 mi ESE 3.5 mph - N/A   Overcast
4:01 AM 50.0 °F - 48.2 °F 94% 30.17 in 9.0 mi Calm Calm - N/A   Overcast
4:53 AM 46.9 °F - 46.9 °F 100% 30.16 in 7.0 mi North 5.8 mph - N/A   Partly Cloudy
5:53 AM 48.0 °F - 48.0 °F 100% 30.17 in 7.0 mi Calm Calm - N/A Fog Shallow Fog
6:35 AM 44.6 °F - 44.6 °F 100% 30.18 in 2.0 mi Calm Calm - N/A   Partly Cloudy
6:53 AM 44.1 °F 41.5 °F 44.1 °F 100% 30.20 in 2.5 mi NNW 4.6 mph - N/A   Scattered Clouds
7:12 AM 46.4 °F 45.2 °F 46.4 °F 100% 30.19 in 2.5 mi NNW 3.5 mph - N/A   Mostly Cloudy
7:23 AM 46.4 °F 45.2 °F 46.4 °F 100% 30.19 in 2.5 mi North 3.5 mph - N/A   Overcast
7:31 AM 48.2 °F - 48.2 °F 100% 30.19 in 4.0 mi North 4.6 mph - N/A   Overcast
7:53 AM 48.0 °F - 48.0 °F 100% 30.21 in 4.0 mi Calm Calm - N/A   Overcast
8:53 AM 50.0 °F - 50.0 °F 100% 30.22 in 4.0 mi Calm Calm - N/A   Overcast
9:53 AM 51.1 °F - 50.0 °F 96% 30.22 in 3.0 mi NE 3.5 mph - N/A   Overcast
10:53 AM 53.1 °F - 50.0 °F 89% 30.22 in 5.0 mi ENE 3.5 mph - N/A   Overcast
11:53 AM 57.0 °F - 51.1 °F 81% 30.20 in 7.0 mi NE 5.8 mph - N/A   Scattered Clouds
12:53 PM 59.0 °F - 48.9 °F 69% 30.19 in 10.0 mi SSE 3.5 mph - N/A   Mostly Cloudy
1:39 PM 60.8 °F - 48.2 °F 63% 30.17 in 10.0 mi Calm Calm - N/A   Overcast
1:53 PM 60.1 °F - 48.9 °F 67% 30.17 in 10.0 mi NW 5.8 mph - N/A   Overcast
2:53 PM 62.1 °F - 48.9 °F 62% 30.16 in 10.0 mi NNW 6.9 mph - N/A   Mostly Cloudy
3:53 PM 61.0 °F - 48.0 °F 62% 30.15 in 10.0 mi Variable 3.5 mph - N/A   Mostly Cloudy
4:53 PM 61.0 °F - 46.9 °F 60% 30.14 in 10.0 mi North 6.9 mph - N/A   Overcast
5:53 PM 59.0 °F - 48.0 °F 67% 30.14 in 10.0 mi North 4.6 mph - N/A   Mostly Cloudy
6:53 PM 57.0 °F - 46.9 °F 69% 30.15 in 10.0 mi North 5.8 mph - N/A   Mostly Cloudy
7:53 PM 55.9 °F - 46.9 °F 72% 30.16 in 10.0 mi NNE 4.6 mph - N/A   Mostly Cloudy
8:53 PM 54.0 °F - 46.9 °F 77% 30.16 in 10.0 mi NNE 5.8 mph - N/A   Mostly Cloudy
9:53 PM 53.1 °F - 46.9 °F 80% 30.17 in 10.0 mi Calm Calm - N/A   Mostly Cloudy
10:53 PM 51.1 °F - 48.0 °F 89% 30.17 in 10.0 mi Calm Calm - N/A   Overcast
11:53 PM 51.1 °F - 48.9 °F 92% 30.15 in 9.0 mi Calm Calm - N/A   Mostly Cloudy